Regional Weather Roundup
Issued by NWS

Home | Current Version | Previous Version | Graphics & Text | Print | Product List | Glossary Off
Versions: 1 2 3 4 5 6 7 8 9 10 11 12 13 14 15 16 17 18 19 20 21 22 23 24 25 26 27 28 29 30 31 32 33 34 35 36 37 38 39 40 41 42 43 44 45 46 47 48 49 50

000
ASUS45 KSLC 022310
RWRUT

UTAH REGIONAL WEATHER ROUNDUP
NATIONAL WEATHER SERVICE SALT LAKE CITY UT
500 PM MDT MON MAY 02 2016

UTZ001>011-023>025-030000-

NORTHERN UTAH

CITY           SKY/WX    TMP DP  RH WIND       PRES   REMARKS
BRIGHAM CITY   SUNNY     66  24  20 W5        30.16F
HILL AFB       SUNNY     64  29  27 VRB7      30.17F
LOGAN          SUNNY     65  24  21 CALM      30.16F
OGDEN          SUNNY     65  28  24 NW8       30.16F
PROVO AIRPORT  MOSUNNY   64  36  34 VRB6      30.15F
SALT LAKE CITY MOSUNNY   69  29  22 NW12      30.15S
VERNAL         SUNNY     62  25  24 CALM      30.15F
WENDOVER       SUNNY     64  34  32 SE9       30.16F
HEBER CITY     MOSUNNY   63  27  25 N3        30.15F

$$

UTZ012>022-026-027-030000-

SOUTHERN/CENTRAL UTAH

CITY           SKY/WX    TMP DP  RH WIND       PRES   REMARKS
BLANDING       MOSUNNY   57  34  41 N3        30.25F
BRYCE CANYON   PTSUNNY   50  35  56 S12G18    30.23F
CEDAR CITY     LGT RAIN  49  42  77 S12       30.17S
DELTA          PTSUNNY   64  28  25 NE8       30.14F
HANKSVILLE     MOSUNNY   64  32  29 CALM      30.15F
MILFORD        MOSUNNY   63  32  31 N7        30.13F
MOAB/CYNLANDS  PTSUNNY   64  34  32 E10       30.12F
PRICE          MOSUNNY   60  30  32 VRB3      30.17F
ST GEORGE      PTCLDY    72  39  30 NE20      30.09S
KANAB          MOSUNNY   64  34  32 NE14G20   30.16F

$$

REGIONAL REPORTS     COLORADO/ARIZONA

CITY           SKY/WX    TMP DP  RH WIND       PRES   REMARKS
CRAIG, CO      SUNNY     59  24  26 W13       30.17F
GRAND JUNCTION MOSUNNY   64  31  28 W7        30.12F
RIFLE          MOSUNNY   64  25  22 VRB5      30.12F
MONTROSE       MOSUNNY   62  28  27 N12       30.15F
CORTEZ         MOSUNNY   56  35  45 SW5       30.17F
PAGE, AZ       SUNNY     65  36  34 VRB3      30.13F
GRAND CANYON   PTSUNNY   56  31  38 VRB7      30.18F
KINGMAN        MOSUNNY   70  35  27 SE18      30.05F
FLAGSTAFF      PTSUNNY   50  40  68 E10       30.19S

$$

REGIONAL REPORTS    NEVADA/IDAHO/WYOMING

CITY           SKY/WX    TMP DP  RH WIND       PRES   REMARKS
LAS VEGAS, NV  MOSUNNY   79  31  17 CALM      29.97F
ELY            CLOUDY    57  26  30 VRB6      30.18F
ELKO           MOSUNNY   64  32  30 VRB5      30.14F
POCATELLO, ID  MOSUNNY   66  26  22 NW9       30.17F
BURLEY         SUNNY     67  34  29 NE3       30.14F
EVANSTON, WY   SUNNY     57  18  21 CALM      30.22F
ROCK SPRINGS   SUNNY     54  17  23 VRB5      30.22F
KEMMERER         N/A     57  10  15 SW5       30.23F

$$



USA.gov is the U.S. government's official web portal to all federal, state and local government web resources and services.